This demonstration page uses our WeatherBlox Daily Observations layout. Learn more.

Left ArrowRight Arrow

38.80484, -77.04692

Hourly Observations for July 29, 2018

Temp ( °F °C ) Dew Point ( °F °C ) Humidity (%) Winds ( mph kmh ) Pressure ( in mb ) Visibility ( mi km ) Precip ( " mm )
12:52 am 00:52 Mostly Cloudy 75 23.9 66 18.9 74 74 N 3 6 30.07 1018 10 16 0.00 0.00
1:52 am 01:52 Mostly Cloudy 74 23.3 63 17.2 69 69 NNW 7 11 30.08 1019 10 16 0.00 0.00
2:52 am 02:52 Partly Cloudy 73 22.8 64 17.8 74 74 NNE 7 11 30.09 1019 10 16 0.00 0.00
3:52 am 03:52 Mostly Cloudy 71 21.7 63 17.2 76 76 NNW 7 11 30.10 1019 10 16 0.00 0.00
4:52 am 04:52 Mostly Cloudy 71 21.7 62 16.7 73 73 NNW 7 11 30.10 1019 10 16 0.00 0.00
5:52 am 05:52 Mostly Cloudy 71 21.7 61 16.1 71 71 NNW 7 11 30.11 1020 10 16 0.00 0.00
6:52 am 06:52 Mostly Cloudy 70 21.1 62 16.7 76 76 NNW 6 9 30.12 1020 10 16 0.00 0.00
7:52 am 07:52 Mostly Cloudy 73 22.8 62 16.7 69 69 N 6 9 30.13 1020 10 16 0.00 0.00
8:52 am 08:52 Mostly Cloudy 74 23.3 60 15.6 62 62 N 7 11 30.12 1020 10 16 0.00 0.00
9:52 am 09:52 Mostly Cloudy 78 25.6 61 16.1 56 56 NNE 9 15 30.13 1020 10 16 0.00 0.00
10:52 am 10:52 Mostly Cloudy 81 27.2 59 15 47 47 NNE 6 9 30.14 1021 10 16 0.00 0.00
11:52 am 11:52 Mostly Cloudy 83 28.3 57 13.9 41 41 NNE 3 6 30.11 1020 10 16 0.00 0.00
12:52 pm 12:52 Mostly Cloudy 83 28.3 57 13.9 41 41 Calm 30.11 1020 10 16 0.00 0.00
1:52 pm 13:52 Mostly Cloudy 84 28.9 57 13.9 40 40 S 5 7 30.11 1020 10 16 0.00 0.00
2:52 pm 14:52 Mostly Cloudy 85 29.4 60 15.6 43 43 SSE 7 11 30.10 1019 10 16 0.00 0.00
3:52 pm 15:52 Partly Cloudy 83 28.3 61 16.1 48 48 S 9 15 30.09 1019 10 16 0.00 0.00
4:52 pm 16:52 Partly Cloudy 85 29.4 60 15.6 43 43 S 7 11 30.09 1019 10 16 0.00 0.00
5:52 pm 17:52 Mostly Sunny 84 28.9 64 17.8 51 51 S 8 13 30.08 1019 10 16 0.00 0.00
6:52 pm 18:52 Mostly Sunny 84 28.9 64 17.8 51 51 S 8 13 30.09 1019 10 16 0.00 0.00
7:52 pm 19:52 Mostly Sunny 81 27.2 64 17.8 57 57 SSE 10 17 30.10 1019 10 16 0.00 0.00
8:52 pm 20:52 Mostly Clear 79 26.1 64 17.8 60 60 SSE 5 7 30.10 1019 10 16 0.00 0.00
9:52 pm 21:52 Clear 79 26.1 62 16.7 56 56 SE 3 6 30.12 1020 10 16 0.00 0.00
10:52 pm 22:52 Partly Cloudy 77 25 62 16.7 60 60 S 7 11 30.13 1020 10 16 0.00 0.00
11:52 pm 23:52 Partly Cloudy 76 24.4 62 16.7 62 62 SSW 5 7 30.13 1020 10 16 0.00 0.00

Powered by AerisWeather